Hourly Weather Pazardzhik

Today, 26 September, Saturday

Time Temperature Precipitation Wind Pressure Humidity
00:00 +20°C° 0 mm 2 mps 734 mmHg 64%
01:00 +20°C° 0 mm 2 mps 734 mmHg 67%
02:00 +19°C° 0 mm 2 mps 733 mmHg 70%
03:00 +19°C° 0 mm 2 mps 733 mmHg 71%
04:00 +19°C° 0 mm 2 mps 732 mmHg 72%
05:00 +19°C° 0 mm 2 mps 732 mmHg 73%
06:00 +20°C° 0 mm 2 mps 732 mmHg 70%
07:00 +21°C° 0 mm 2 mps 731 mmHg 67%
08:00 +22°C° 0 mm 3 mps 731 mmHg 63%
09:00 +22°C° 0.1 mm 3 mps 731 mmHg 62%
10:00 +24°C° 0.1 mm 2 mps 731 mmHg 61%
11:00 +25°C° 0.1 mm 2 mps 731 mmHg 60%
12:00 +25°C° 0.4 mm 3 mps 731 mmHg 59%
13:00 +25°C° 0.4 mm 4 mps 730 mmHg 58%
14:00 +26°C° 0.4 mm 5 mps 729 mmHg 57%
15:00 +25°C° 0.3 mm 4 mps 729 mmHg 60%
16:00 +24°C° 0.3 mm 3 mps 729 mmHg 63%
17:00 +24°C° 0.3 mm 2 mps 729 mmHg 66%
18:00 +21°C° 0.6 mm 2 mps 729 mmHg 70%
19:00 +19°C° 0.6 mm 2 mps 730 mmHg 75%
20:00 +18°C° 0.6 mm 2 mps 730 mmHg 79%
21:00 +17°C° 0 mm 2 mps 731 mmHg 79%
22:00 +16°C° 0 mm 2 mps 732 mmHg 78%
23:00 +14°C° 0 mm 3 mps 733 mmHg 78%

Tomorrow, 27 September, Sunday

Time Temperature Precipitation Wind Pressure Humidity
00:00 +14°C° 0 mm 2 mps 733 mmHg 77%
01:00 +14°C° 0 mm 2 mps 734 mmHg 76%
02:00 +13°C° 0 mm 2 mps 734 mmHg 75%
03:00 +13°C° 0 mm 2 mps 735 mmHg 75%
04:00 +13°C° 0 mm 2 mps 735 mmHg 74%
05:00 +12°C° 0 mm 2 mps 735 mmHg 74%
06:00 +14°C° 0 mm 2 mps 736 mmHg 68%
07:00 +15°C° 0 mm 1 mps 737 mmHg 63%
08:00 +18°C° 0 mm 1 mps 737 mmHg 58%
09:00 +20°C° 0 mm 1 mps 738 mmHg 49%
10:00 +21°C° 0 mm 2 mps 738 mmHg 41%
11:00 +25°C° 0 mm 2 mps 738 mmHg 32%
12:00 +26°C° 0 mm 2 mps 738 mmHg 29%
13:00 +27°C° 0 mm 3 mps 738 mmHg 27%
14:00 +28°C° 0 mm 3 mps 738 mmHg 24%
15:00 +28°C° 0 mm 3 mps 739 mmHg 26%
16:00 +27°C° 0 mm 3 mps 739 mmHg 27%
17:00 +27°C° 0 mm 2 mps 739 mmHg 29%
18:00 +24°C° 0 mm 2 mps 739 mmHg 36%
19:00 +21°C° 0 mm 2 mps 740 mmHg 43%
20:00 +18°C° 0 mm 2 mps 740 mmHg 50%
21:00 +18°C° 0 mm 2 mps 741 mmHg 52%
22:00 +17°C° 0 mm 2 mps 741 mmHg 54%
23:00 +16°C° 0 mm 2 mps 741 mmHg 56%

Day after tomorrow, 28 September, Monday

Time Temperature Precipitation Wind Pressure Humidity
00:00 +16°C° 0 mm 2 mps 741 mmHg 58%
01:00 +16°C° 0 mm 2 mps 741 mmHg 60%
02:00 +15°C° 0 mm 1 mps 740 mmHg 62%
03:00 +15°C° 0 mm 1 mps 740 mmHg 65%
04:00 +15°C° 0 mm 1 mps 740 mmHg 68%
05:00 +14°C° 0 mm 1 mps 740 mmHg 70%
06:00 +16°C° 0 mm 1 mps 740 mmHg 67%
07:00 +18°C° 0 mm 1 mps 740 mmHg 64%
08:00 +20°C° 0 mm 1 mps 740 mmHg 61%
09:00 +21°C° 0 mm 2 mps 740 mmHg 54%
10:00 +24°C° 0 mm 2 mps 740 mmHg 47%
11:00 +26°C° 0 mm 3 mps 740 mmHg 40%
12:00 +28°C° 0 mm 3 mps 740 mmHg 38%
13:00 +29°C° 0 mm 3 mps 740 mmHg 36%
14:00 +30°C° 0 mm 3 mps 740 mmHg 34%
15:00 +29°C° 0 mm 3 mps 740 mmHg 36%
16:00 +29°C° 0 mm 4 mps 739 mmHg 39%
17:00 +28°C° 0 mm 4 mps 739 mmHg 42%
18:00 +26°C° 0 mm 4 mps 739 mmHg 50%
19:00 +24°C° 0 mm 3 mps 739 mmHg 58%
20:00 +21°C° 0 mm 3 mps 739 mmHg 66%
21:00 +20°C° 0 mm 3 mps 740 mmHg 69%
22:00 +19°C° 0 mm 2 mps 740 mmHg 71%
23:00 +18°C° 0 mm 2 mps 740 mmHg 74%

29 September, Tuesday

Time Temperature Precipitation Wind Pressure Humidity
00:00 +18°C° 0.2 mm 2 mps 740 mmHg 76%
01:00 +17°C° 0.2 mm 2 mps 740 mmHg 78%
02:00 +16°C° 0.2 mm 2 mps 740 mmHg 80%
03:00 +17°C° 0.1 mm 2 mps 740 mmHg 79%
04:00 +17°C° 0.1 mm 2 mps 740 mmHg 77%
05:00 +17°C° 0.1 mm 2 mps 740 mmHg 76%
06:00 +17°C° 0 mm 2 mps 740 mmHg 72%
07:00 +18°C° 0 mm 2 mps 740 mmHg 67%
08:00 +19°C° 0 mm 2 mps 740 mmHg 63%
09:00 +21°C° 0.1 mm 2 mps 740 mmHg 55%
10:00 +22°C° 0.1 mm 3 mps 741 mmHg 47%
11:00 +25°C° 0.1 mm 4 mps 741 mmHg 38%
12:00 +25°C° 0.2 mm 4 mps 741 mmHg 36%
13:00 +26°C° 0.2 mm 4 mps 741 mmHg 33%
14:00 +26°C° 0.2 mm 4 mps 741 mmHg 30%
15:00 +26°C° 0 mm 4 mps 740 mmHg 30%
16:00 +25°C° 0 mm 4 mps 740 mmHg 30%
17:00 +25°C° 0 mm 4 mps 740 mmHg 30%
18:00 +21°C° 0 mm 3 mps 740 mmHg 35%
19:00 +19°C° 0 mm 2 mps 741 mmHg 40%
20:00 +17°C° 0 mm 2 mps 741 mmHg 45%
21:00 +16°C° 0 mm 2 mps 741 mmHg 47%
22:00 +16°C° 0 mm 2 mps 741 mmHg 49%
23:00 +15°C° 0 mm 2 mps 741 mmHg 51%

30 September, Wednesday

Time Temperature Precipitation Wind Pressure Humidity
00:00 +16°C° 0 mm 2 mps 741 mmHg 51%
01:00 +16°C° 0 mm 2 mps 741 mmHg 51%
02:00 +16°C° 0 mm 2 mps 741 mmHg 51%
03:00 +16°C° 0 mm 2 mps 741 mmHg 53%
04:00 +16°C° 0 mm 2 mps 741 mmHg 54%
05:00 +16°C° 0 mm 2 mps 741 mmHg 55%
06:00 +16°C° 0 mm 2 mps 741 mmHg 54%
07:00 +17°C° 0 mm 2 mps 741 mmHg 53%
08:00 +18°C° 0 mm 2 mps 741 mmHg 51%
09:00 +20°C° 0 mm 2 mps 741 mmHg 47%
10:00 +21°C° 0 mm 3 mps 741 mmHg 42%
11:00 +24°C° 0 mm 3 mps 741 mmHg 37%
12:00 +25°C° 0 mm 4 mps 740 mmHg 36%
13:00 +25°C° 0 mm 4 mps 740 mmHg 34%
14:00 +26°C° 0 mm 4 mps 739 mmHg 32%
15:00 +25°C° 0 mm 4 mps 739 mmHg 35%
16:00 +23°C° 0 mm 5 mps 739 mmHg 37%
17:00 +22°C° 0 mm 5 mps 739 mmHg 39%
18:00 +20°C° 0 mm 4 mps 739 mmHg 46%
19:00 +18°C° 0 mm 2 mps 739 mmHg 54%
20:00 +16°C° 0 mm 1 mps 739 mmHg 61%
21:00 +16°C° 0 mm 1 mps 739 mmHg 62%
22:00 +15°C° 0 mm 1 mps 739 mmHg 63%
23:00 +15°C° 0 mm 1 mps 739 mmHg 64%

1 October, Thursday

Time Temperature Precipitation Wind Pressure Humidity
00:00 +15°C° 0 mm 1 mps 739 mmHg 64%
01:00 +14°C° 0 mm 1 mps 739 mmHg 64%
02:00 +14°C° 0 mm 1 mps 739 mmHg 64%
03:00 +14°C° 0 mm 1 mps 739 mmHg 64%
04:00 +14°C° 0 mm 1 mps 739 mmHg 64%
05:00 +14°C° 0 mm 1 mps 739 mmHg 65%
06:00 +15°C° 0 mm 1 mps 739 mmHg 60%
07:00 +16°C° 0 mm 1 mps 739 mmHg 56%
08:00 +17°C° 0 mm 0 mps 739 mmHg 52%
09:00 +21°C° 0 mm 1 mps 739 mmHg 46%
10:00 +23°C° 0 mm 1 mps 739 mmHg 40%
11:00 +25°C° 0 mm 2 mps 739 mmHg 35%
12:00 +26°C° 0 mm 2 mps 739 mmHg 34%
13:00 +26°C° 0 mm 2 mps 739 mmHg 32%
14:00 +27°C° 0 mm 2 mps 738 mmHg 31%
15:00 +27°C° 0 mm 2 mps 738 mmHg 33%
16:00 +26°C° 0 mm 1 mps 738 mmHg 34%
17:00 +26°C° 0 mm 1 mps 738 mmHg 35%
18:00 +24°C° 0 mm 1 mps 738 mmHg 39%
19:00 +23°C° 0 mm 1 mps 739 mmHg 43%
20:00 +21°C° 0 mm 1 mps 739 mmHg 47%
21:00 +21°C° 0 mm 1 mps 739 mmHg 49%
22:00 +20°C° 0 mm 1 mps 740 mmHg 50%
23:00 +20°C° 0 mm 1 mps 740 mmHg 51%
Show more